Weather History for Veracruz Airport, Mexico

Change the Weather History Date:

Wednesday, October 17, 2012

  Actual Average Record
Temperature  
Mean Temperature 78 °F -  
Max Temperature 86 °F 83 °F 96 °F (2006)
Min Temperature 69 °F 68 °F 64 °F (1997)
Cooling Degree Days 12    
Growing Degree Days 28 (Base 50)    
Moisture  
Dew Point 70 °F    
Average Humidity 78    
Maximum Humidity 94    
Minimum Humidity 58    
Precipitation  
Precipitation 0.00 in - - ()
Sea Level Pressure  
Sea Level Pressure 29.79 in    
Wind  
Wind Speed 3 mph ()    
Max Wind Speed 10 mph    
Max Gust Speed -    
Visibility 7.0 miles    
Events      
Averages and records for this station are not official NWS values.
T = Trace of Precipitation, MM = Missing Value Source: Averaged Metar Reports

Daily Weather History Graph

Daily Weather History Graph

Search for Another Location

Airport:

Trip Planner

Search our weather history database for the weather conditions in past years. The results will help you decide how hot, cold, wet, or windy it might be!

Date:

Astronomy

Oct. 17, 2012 Rise Set
Actual Time 7:19 AM CDT 6:59 PM CDT
Civil Twilight 6:57 AM CDT 7:22 PM CDT
Nautical Twilight 6:31 AM CDT 7:47 PM CDT
Astronomical Twilight 6:06 AM CDT 8:13 PM CDT
Moon 9:31 AM CDT (10/17) 9:02 PM CDT (10/17)
Length of Visible Light 12h 24m
Length of Day
11h 40m
Waxing Crescent, 7% of the Moon is Illuminated
Oct 17
Waxing Crescent
Oct 21
First Quarter
Oct 29
Full
Nov 6
Last Quarter
Nov 13
New

Hourly Weather History & Observations

Time (CDT) Temp. Heat Index Dew Point Humidity Pressure Visibility Wind Dir Wind Speed Gust Speed Precip Events Conditions
5:16 AM 69.8 °F - 68.0 °F 94% 29.81 in 7.0 mi Calm Calm - N/A   Clear
5:42 AM 69.8 °F - 68.0 °F 94% 29.81 in 7.0 mi Calm Calm - N/A   Clear
6:42 AM 69.8 °F - 66.2 °F 88% 29.80 in 7.0 mi WSW 3.5 mph - N/A   Clear
7:53 AM 69.8 °F - 68.0 °F 94% 29.84 in 7.0 mi WSW 3.5 mph - N/A   Mostly Cloudy
8:46 AM 73.4 °F - 69.8 °F 88% 29.84 in 7.0 mi SSW 3.5 mph - N/A   Mostly Cloudy
9:42 AM 77.0 °F - 71.6 °F 83% 29.83 in 7.0 mi SSW 3.5 mph - N/A   Mostly Cloudy
10:45 AM 80.6 °F 84.6 °F 71.6 °F 74% 29.86 in 7.0 mi South 10.4 mph - N/A   Mostly Cloudy
11:49 AM 82.4 °F 87.2 °F 71.6 °F 70% 29.85 in 7.0 mi SSW 5.8 mph - N/A   Mostly Cloudy
12:45 PM 84.2 °F 88.4 °F 69.8 °F 62% 29.82 in 7.0 mi SSW 5.8 mph - N/A   Mostly Cloudy
1:40 PM 86.0 °F 91.8 °F 71.6 °F 62% 29.78 in 7.0 mi Calm Calm - N/A   Mostly Cloudy
2:43 PM 86.0 °F 90.4 °F 69.8 °F 58% 29.75 in 7.0 mi Calm Calm - N/A   Mostly Cloudy
3:43 PM 86.0 °F 91.8 °F 71.6 °F 62% 29.74 in 7.0 mi East 9.2 mph - N/A   Mostly Cloudy
4:41 PM 84.2 °F 89.6 °F 71.6 °F 66% 29.72 in 7.0 mi East 6.9 mph - N/A   Mostly Cloudy
5:43 PM 84.2 °F 89.6 °F 71.6 °F 66% 29.73 in 7.0 mi East 6.9 mph - N/A   Mostly Cloudy
6:45 PM 80.6 °F 83.9 °F 69.8 °F 70% 29.70 in 7.0 mi SE 4.6 mph - N/A   Mostly Cloudy
7:42 PM 78.8 °F - 71.6 °F 78% 29.77 in 7.0 mi ESE 4.6 mph - N/A   Scattered Clouds
8:42 PM 78.8 °F - 71.6 °F 78% 29.79 in 7.0 mi ESE 3.5 mph - N/A   Scattered Clouds
9:44 PM 77.0 °F - 71.6 °F 83% 29.77 in 7.0 mi SSE 3.5 mph - N/A   Clear
10:43 PM 75.2 °F - 71.6 °F 89% 29.82 in 7.0 mi SSE 3.5 mph - N/A   Clear
11:45 PM 73.4 °F - 71.6 °F 94% 29.82 in 7.0 mi NW 3.5 mph - N/A   Clear